Main page
METAR-TAF:

METAR-TAF

Airports :

Kullu / Manali, India

Bhuntar Airport

latitude: 31-52-36N, longitude: 77-09-16E, elevation: 1089 m

Current weather observation

The report was made 14 hours and 17 minutes ago, at 05:00 UTC
Calm wind
Temperature 22°C
Humidity 43%
Pressure 1016 hPa
Visibility: 8000 m
Few clouds at a height of 4000 ft

METAR: VIBR 210500Z 00000KT 8000 FEW040 22/09 Q1016

Time: 00:47 (19:17 UTC)


TAF: missing

Weather observations and forecasts of more than 4000 airports (METAR and TAF reports).

The available stations are represented by yellow and red dots on the map.

Hover mouse over dot to see the name of the station.

Then click to see weather observations and forecasts.

To change the map : click on the green buttons with a black cross to zoom in, on the green button with a dash to zoom out, or on the green arrows for adjacent maps.


METAR-TAF: